Home > Weather > Besançon > Past weeks

Flag for France Past Weather in Besançon, Franche-Comté, France — Yesterday and Last 2 Weeks

Now
59 °F

Clear.


Feels Like: N/A
Forecast: 59 / 77 °F
Wind: N/A

Location: Dole Tavaux

Current Time: Jun 28, 2016 at 8:05:50 AM

Latest Report: Jun 28, 2016 at 7:30 AM


Visibility: 10 mi

Pressure: 30.12 "Hg

Humidity: 94%

Dew Point: 57 °F

Location of BesançonLocation

Past Weather in Besançon — Graph

°F

Besançon Temperature Yesterday

Maximum temperature yesterday: 75 °F (at 4:00 PM)
Minimum temperature yesterday: 50 °F (at 5:30 AM)
Average temperature yesterday: 64 °F

High & Low Weather Summary for the Past Weeks

 TemperatureHumidityPressure
High90 °F (Jun 23, 2:30 PM)100% (Jun 13, 7:00 AM)30.27 "Hg (Jun 13, 7:00 AM)
Low45 °F (Jun 20, 5:00 AM)43% (Jun 23, 2:30 PM)29.56 "Hg (Jun 15, 8:30 PM)
Average64 °F80%30.00 "Hg
* Reported Jun 13 7:00 AM — Jun 28 7:00 AM, Besançon, Weather by CustomWeather, © 2016

Note: Actual official high and low records may vary slightly from our data, if they occured in-between our weather recording intervals... More about our weather records

Advertising

Besançon Weather History for the Previous 24 Hours

Scroll right to see more
 ConditionsComfort  
Time TempWeatherWind HumidityBarometerVisibility
7:00 AM
Tue, Jun 28
57 °FClear.2 mph100%30.12 "Hg10 mi
6:30 AM55 °FPassing clouds.N/A100%30.15 "Hg6 mi
6:00 AM55 °FClear.N/A94%30.15 "Hg10 mi
5:30 AM55 °FClear.2 mph94%30.12 "Hg10 mi
5:00 AM55 °FClear.5 mph94%30.12 "Hg6 mi
4:30 AM55 °FClear.2 mph94%30.12 "Hg6 mi
4:00 AM57 °FClear.3 mph94%30.15 "Hg10 mi
3:30 AM55 °FClear.2 mph100%30.15 "Hg6 mi
3:00 AM57 °FClear.2 mph94%30.15 "Hg10 mi
2:30 AM57 °FOvercast.No wind100%30.15 "HgN/A
2:00 AM57 °FPassing clouds.No wind94%30.15 "HgN/A
1:30 AM57 °FClear.2 mph94%30.15 "Hg10 mi
1:00 AM57 °FClear.3 mph94%30.15 "Hg10 mi
12:30 AM59 °FClear.2 mph94%30.15 "Hg10 mi
12:00 AM59 °FClear.1 mph94%30.15 "Hg10 mi
11:30 PM
Mon, Jun 27
61 °FSunny.1 mph88%30.15 "Hg10 mi
11:00 PM64 °FSunny.2 mph78%30.15 "Hg10 mi
10:30 PM64 °FSunny.2 mph78%30.15 "Hg10 mi
10:00 PM68 °FClear.3 mph64%30.15 "Hg5 mi
9:30 PM68 °FSunny.3 mph64%30.15 "Hg10 mi
9:00 PM72 °FSunny.3 mph53%30.15 "Hg10 mi
8:30 PM72 °FSunny.5 mph57%30.15 "Hg10 mi
8:00 PM73 °FSunny.6 mph50%30.15 "Hg10 mi
7:30 PM75 °FPassing clouds.3 mph50%30.15 "HgN/A
7:00 PM73 °FPassing clouds.7 mph50%30.15 "HgN/A
6:30 PM73 °FPassing clouds.6 mph50%30.15 "HgN/A
6:00 PM75 °FPassing clouds.6 mph47%30.15 "HgN/A
5:30 PM75 °FPassing clouds.5 mph47%30.15 "HgN/A
5:00 PM75 °FSunny.3 mph44%30.15 "Hg10 mi
4:30 PM73 °FPassing clouds.5 mph47%30.15 "HgN/A
4:00 PM75 °FSunny.6 mph47%30.18 "Hg10 mi
3:30 PM73 °FPassing clouds.6 mph50%30.15 "HgN/A
3:00 PM73 °FPassing clouds.7 mph50%30.18 "HgN/A
2:30 PM73 °FPassing clouds.9 mph50%30.18 "HgN/A
2:00 PM73 °FPassing clouds.6 mph47%30.18 "HgN/A
1:30 PM72 °FPassing clouds.6 mph50%30.18 "HgN/A
1:00 PM70 °FPassing clouds.5 mph53%30.18 "HgN/A
12:30 PM72 °FBroken clouds.3 mph50%30.21 "HgN/A
12:00 PM70 °FPartly sunny.5 mph53%30.21 "HgN/A
11:30 AM68 °FScattered clouds.2 mph56%30.21 "HgN/A
11:00 AM68 °FScattered clouds.6 mph60%30.21 "HgN/A
10:30 AM68 °FPassing clouds.5 mph64%30.21 "HgN/A
10:00 AM66 °FSunny.2 mph68%30.21 "Hg10 mi
9:30 AM64 °FSunny.2 mph78%30.21 "Hg10 mi
9:00 AM63 °FSunny.2 mph83%30.21 "Hg10 mi
8:30 AM59 °FSunny.2 mph88%30.21 "Hg10 mi
8:00 AM59 °FPassing clouds.2 mph88%30.21 "HgN/A
Weather by CustomWeather, © 2016

See weather overviewHow to use our weather pages